Time,TemperatureF,DewpointF,PressureIn,WindDirection,WindDirectionDegrees,WindSpeedMPH,WindSpeedGustMPH,Humidity,HourlyPrecipIn,Conditions,Clouds,dailyrainin,SoftwareType,DateUTC
2013-12-07 00:00:00,7.3,2.7,30.51,WNW,299,0.0,3.0,81,0.00,,---,0.00,VWS V14.00,2013-12-07 06:00:00,
2013-12-07 00:02:00,7.3,2.7,30.51,NW,306,2.0,5.0,81,0.00,,---,0.00,VWS V14.00,2013-12-07 06:02:00,
2013-12-07 00:05:00,7.3,2.7,30.51,NW,304,2.0,5.0,81,0.00,,---,0.00,VWS V14.00,2013-12-07 06:05:00,
2013-12-07 00:07:00,7.3,2.7,30.51,NW,304,2.0,3.0,81,0.00,,---,0.00,VWS V14.00,2013-12-07 06:07:00,
2013-12-07 00:10:00,7.2,2.6,30.51,NW,304,0.0,3.0,81,0.00,,---,0.00,VWS V14.00,2013-12-07 06:10:00,
2013-12-07 00:12:00,7.2,2.6,30.51,WNW,302,0.0,5.0,81,0.00,,---,0.00,VWS V14.00,2013-12-07 06:12:00,
2013-12-07 00:15:00,7.2,2.6,30.51,WNW,300,2.0,5.0,81,0.00,,---,0.00,VWS V14.00,2013-12-07 06:15:00,
2013-12-07 00:17:00,7.1,2.5,30.51,WNW,298,1.0,4.0,81,0.00,,---,0.00,VWS V14.00,2013-12-07 06:17:00,
2013-12-07 00:20:00,7.1,2.5,30.51,WNW,285,2.0,5.0,81,0.00,,---,0.00,VWS V14.00,2013-12-07 06:20:00,
2013-12-07 00:22:00,7.1,2.5,30.51,WNW,300,2.0,6.0,81,0.00,,---,0.00,VWS V14.00,2013-12-07 06:22:00,
2013-12-07 00:25:00,7.1,2.5,30.51,NW,326,1.0,6.0,81,0.00,,---,0.00,VWS V14.00,2013-12-07 06:25:00,
2013-12-07 00:27:00,7.1,2.5,30.51,WNW,298,0.0,6.0,81,0.00,,---,0.00,VWS V14.00,2013-12-07 06:27:00,
2013-12-07 00:30:00,7.1,2.5,30.51,WNW,298,0.0,6.0,81,0.00,,---,0.00,VWS V14.00,2013-12-07 06:30:00,
2013-12-07 00:32:00,7.0,2.4,30.51,WNW,298,1.0,4.0,81,0.00,,---,0.00,VWS V14.00,2013-12-07 06:32:00,
2013-12-07 00:35:00,7.0,2.4,30.51,NW,309,3.0,4.0,81,0.00,,---,0.00,VWS V14.00,2013-12-07 06:35:00,
2013-12-07 00:37:00,7.0,2.4,30.51,WNW,292,0.0,5.0,81,0.00,,---,0.00,VWS V14.00,2013-12-07 06:37:00,
2013-12-07 00:40:00,6.9,2.6,30.51,WNW,292,0.0,5.0,82,0.00,,---,0.00,VWS V14.00,2013-12-07 06:40:00,
2013-12-07 00:42:00,6.9,2.6,30.51,WNW,298,2.0,3.0,82,0.00,,---,0.00,VWS V14.00,2013-12-07 06:42:00,
2013-12-07 00:45:00,6.9,2.6,30.51,WNW,298,0.0,3.0,82,0.00,,---,0.00,VWS V14.00,2013-12-07 06:45:00,
2013-12-07 00:47:00,6.9,2.6,30.51,WNW,298,0.0,3.0,82,0.00,,---,0.00,VWS V14.00,2013-12-07 06:47:00,
2013-12-07 00:50:00,6.8,2.5,30.51,WNW,298,0.0,3.0,82,0.00,,---,0.00,VWS V14.00,2013-12-07 06:50:00,
2013-12-07 00:52:00,6.8,2.5,30.51,NW,315,0.0,5.0,82,0.00,,---,0.00,VWS V14.00,2013-12-07 06:52:00,
2013-12-07 00:55:00,6.8,2.5,30.51,NW,314,0.0,5.0,82,0.00,,---,0.00,VWS V14.00,2013-12-07 06:55:00,
2013-12-07 00:57:00,6.8,2.5,30.51,WNW,303,0.0,7.0,82,0.00,,---,0.00,VWS V14.00,2013-12-07 06:57:00,
2013-12-07 01:00:00,6.7,2.4,30.51,WNW,303,1.0,7.0,82,0.00,,---,0.00,VWS V14.00,2013-12-07 07:00:00,
2013-12-07 01:02:00,6.7,2.4,30.51,NW,314,4.0,5.0,82,0.00,,---,0.00,VWS V14.00,2013-12-07 07:02:00,
2013-12-07 01:05:00,6.7,2.4,30.51,NW,312,2.0,5.0,82,0.00,,---,0.00,VWS V14.00,2013-12-07 07:05:00,
2013-12-07 01:07:00,6.7,2.4,30.51,NW,313,0.0,4.0,82,0.00,,---,0.00,VWS V14.00,2013-12-07 07:07:00,
2013-12-07 01:10:00,6.7,2.4,30.51,NW,313,0.0,4.0,82,0.00,,---,0.00,VWS V14.00,2013-12-07 07:10:00,
2013-12-07 01:12:00,6.7,2.4,30.51,NW,321,0.0,5.0,82,0.00,,---,0.00,VWS V14.00,2013-12-07 07:12:00,
2013-12-07 01:15:00,6.7,2.4,30.51,NW,319,2.0,5.0,82,0.00,,---,0.00,VWS V14.00,2013-12-07 07:15:00,
2013-12-07 01:17:00,6.7,2.4,30.51,NW,311,0.0,5.0,82,0.00,,---,0.00,VWS V14.00,2013-12-07 07:17:00,
2013-12-07 01:20:00,6.7,2.4,30.52,NW,311,0.0,5.0,82,0.00,,---,0.00,VWS V14.00,2013-12-07 07:20:00,
2013-12-07 01:22:00,6.7,2.4,30.51,NW,311,0.0,0.0,82,0.00,,---,0.00,VWS V14.00,2013-12-07 07:22:00,
2013-12-07 01:25:00,6.6,2.3,30.51,West,260,2.0,3.0,82,0.00,,---,0.00,VWS V14.00,2013-12-07 07:25:00,
2013-12-07 01:27:00,6.5,2.2,30.52,WNW,284,0.0,3.0,82,0.00,,---,0.00,VWS V14.00,2013-12-07 07:27:00,
2013-12-07 01:30:00,6.5,2.2,30.52,NW,307,3.0,3.0,82,0.00,,---,0.00,VWS V14.00,2013-12-07 07:30:00,
2013-12-07 01:32:00,6.4,2.1,30.52,NW,323,0.0,4.0,82,0.00,,---,0.00,VWS V14.00,2013-12-07 07:32:00,
2013-12-07 01:35:00,6.4,2.1,30.52,NW,324,0.0,4.0,82,0.00,,---,0.00,VWS V14.00,2013-12-07 07:35:00,
2013-12-07 01:37:00,6.3,2.0,30.52,NW,324,0.0,2.0,82,0.00,,---,0.00,VWS V14.00,2013-12-07 07:37:00,
2013-12-07 01:40:00,6.3,2.0,30.52,NW,324,0.0,2.0,82,0.00,,---,0.00,VWS V14.00,2013-12-07 07:40:00,
2013-12-07 01:42:00,6.2,1.9,30.53,NW,324,0.0,0.0,82,0.00,,---,0.00,VWS V14.00,2013-12-07 07:42:00,
2013-12-07 01:45:00,6.2,1.9,30.53,NW,323,0.0,3.0,82,0.00,,---,0.00,VWS V14.00,2013-12-07 07:45:00,
2013-12-07 01:47:00,6.2,1.9,30.53,NW,323,2.0,2.0,82,0.00,,---,0.00,VWS V14.00,2013-12-07 07:47:00,
2013-12-07 01:50:00,6.1,2.1,30.53,NW,323,0.0,3.0,83,0.00,,---,0.00,VWS V14.00,2013-12-07 07:50:00,
2013-12-07 01:52:00,6.1,2.1,30.53,NW,323,0.0,3.0,83,0.00,,---,0.00,VWS V14.00,2013-12-07 07:52:00,
2013-12-07 01:55:00,6.1,2.1,30.53,NW,323,1.0,3.0,83,0.00,,---,0.00,VWS V14.00,2013-12-07 07:55:00,
2013-12-07 01:57:00,6.0,2.0,30.53,NW,323,1.0,2.0,83,0.00,,---,0.00,VWS V14.00,2013-12-07 07:57:00,
2013-12-07 02:00:00,6.0,2.0,30.53,NW,323,2.0,4.0,83,0.00,,---,0.00,VWS V14.00,2013-12-07 08:00:00,
2013-12-07 02:02:00,6.0,2.0,30.53,NW,323,2.0,3.0,83,0.00,,---,0.00,VWS V14.00,2013-12-07 08:02:00,
2013-12-07 02:05:00,5.9,1.9,30.54,WNW,298,2.0,6.0,83,0.00,,---,0.00,VWS V14.00,2013-12-07 08:05:00,
2013-12-07 02:07:00,5.9,1.9,30.54,NW,315,1.0,5.0,83,0.00,,---,0.00,VWS V14.00,2013-12-07 08:07:00,
2013-12-07 02:10:00,5.9,1.9,30.53,NW,315,2.0,5.0,83,0.00,,---,0.00,VWS V14.00,2013-12-07 08:10:00,
2013-12-07 02:12:00,5.9,1.9,30.54,WNW,300,2.0,4.0,83,0.00,,---,0.00,VWS V14.00,2013-12-07 08:12:00,
2013-12-07 02:15:00,5.9,1.9,30.54,NW,317,0.0,4.0,83,0.00,,---,0.00,VWS V14.00,2013-12-07 08:15:00,
2013-12-07 02:17:00,5.9,1.9,30.54,NW,317,1.0,4.0,83,0.00,,---,0.00,VWS V14.00,2013-12-07 08:17:00,
2013-12-07 02:20:00,5.8,1.8,30.54,NW,317,0.0,4.0,83,0.00,,---,0.00,VWS V14.00,2013-12-07 08:20:00,
2013-12-07 02:21:00,5.8,1.8,30.54,NW,317,1.0,3.0,83,0.00,,---,0.00,VWS V14.00,2013-12-07 08:21:00,
2013-12-07 02:25:00,5.8,1.8,30.54,NW,321,2.0,3.0,83,0.00,,---,0.00,VWS V14.00,2013-12-07 08:25:00,
2013-12-07 02:26:00,5.7,1.7,30.54,NW,317,0.0,3.0,83,0.00,,---,0.00,VWS V14.00,2013-12-07 08:26:00,
2013-12-07 02:30:00,5.7,1.7,30.53,NW,317,0.0,3.0,83,0.00,,---,0.00,VWS V14.00,2013-12-07 08:30:00,
2013-12-07 02:31:00,5.6,1.6,30.53,NW,317,3.0,3.0,83,0.00,,---,0.00,VWS V14.00,2013-12-07 08:31:00,
2013-12-07 02:35:00,5.6,1.6,30.53,NW,317,2.0,3.0,83,0.00,,---,0.00,VWS V14.00,2013-12-07 08:35:00,
2013-12-07 02:36:00,5.6,1.6,30.54,WNW,299,0.0,4.0,83,0.00,,---,0.00,VWS V14.00,2013-12-07 08:36:00,
2013-12-07 02:40:00,5.5,1.5,30.54,WNW,299,1.0,4.0,83,0.00,,---,0.00,VWS V14.00,2013-12-07 08:40:00,
2013-12-07 02:41:00,5.5,1.5,30.54,NW,317,0.0,3.0,83,0.00,,---,0.00,VWS V14.00,2013-12-07 08:41:00,
2013-12-07 02:45:00,5.4,1.4,30.54,NW,317,1.0,3.0,83,0.00,,---,0.00,VWS V14.00,2013-12-07 08:45:00,
2013-12-07 02:46:00,5.4,1.4,30.54,NW,317,0.0,1.0,83,0.00,,---,0.00,VWS V14.00,2013-12-07 08:46:00,
2013-12-07 02:50:00,5.4,1.4,30.54,NW,317,0.0,1.0,83,0.00,,---,0.00,VWS V14.00,2013-12-07 08:50:00,
2013-12-07 02:51:00,5.3,1.3,30.54,NW,317,0.0,0.0,83,0.00,,---,0.00,VWS V14.00,2013-12-07 08:51:00,
2013-12-07 02:55:00,5.3,1.3,30.54,NW,317,0.0,0.0,83,0.00,,---,0.00,VWS V14.00,2013-12-07 08:55:00,
2013-12-07 02:56:00,5.2,1.2,30.54,NW,317,0.0,0.0,83,0.00,,---,0.00,VWS V14.00,2013-12-07 08:56:00,
2013-12-07 03:00:00,5.1,1.1,30.54,NW,317,0.0,0.0,83,0.00,,---,0.00,VWS V14.00,2013-12-07 09:00:00,
2013-12-07 03:01:00,5.0,1.0,30.55,NW,317,0.0,3.0,83,0.00,,---,0.00,VWS V14.00,2013-12-07 09:01:00,
2013-12-07 03:05:00,5.0,1.0,30.55,NW,317,2.0,3.0,83,0.00,,---,0.00,VWS V14.00,2013-12-07 09:05:00,
2013-12-07 03:06:00,5.0,1.0,30.55,NW,317,0.0,2.0,83,0.00,,---,0.00,VWS V14.00,2013-12-07 09:06:00,
2013-12-07 03:10:00,5.0,1.2,30.55,NW,317,0.0,2.0,84,0.00,,---,0.00,VWS V14.00,2013-12-07 09:10:00,
2013-12-07 03:11:00,5.0,3.7,30.55,NW,317,0.0,1.0,94,0.00,,---,0.00,VWS V14.00,2013-12-07 09:11:00,
2013-12-07 03:15:00,5.0,3.7,30.55,NW,323,0.0,5.0,94,0.00,,---,0.00,VWS V14.00,2013-12-07 09:15:00,
2013-12-07 03:16:00,5.0,1.2,30.55,NW,323,0.0,1.0,84,0.00,,---,0.00,VWS V14.00,2013-12-07 09:16:00,
2013-12-07 03:20:00,5.0,1.2,30.55,NW,322,1.0,2.0,84,0.00,,---,0.00,VWS V14.00,2013-12-07 09:20:00,
2013-12-07 03:21:00,5.1,1.3,30.55,NW,319,0.0,2.0,84,0.00,,---,0.00,VWS V14.00,2013-12-07 09:21:00,
2013-12-07 03:25:00,5.1,1.3,30.55,NW,319,1.0,2.0,84,0.00,,---,0.00,VWS V14.00,2013-12-07 09:25:00,
2013-12-07 03:26:00,5.1,1.3,30.55,NW,319,0.0,2.0,84,0.00,,---,0.00,VWS V14.00,2013-12-07 09:26:00,
2013-12-07 03:30:00,5.0,1.2,30.55,NW,319,0.0,2.0,84,0.00,,---,0.00,VWS V14.00,2013-12-07 09:30:00,
2013-12-07 03:31:00,5.0,1.2,30.55,NW,319,0.0,3.0,84,0.00,,---,0.00,VWS V14.00,2013-12-07 09:31:00,
2013-12-07 03:35:00,5.0,3.7,30.55,WNW,298,2.0,5.0,94,0.00,,---,0.00,VWS V14.00,2013-12-07 09:35:00,
2013-12-07 03:37:00,5.0,1.2,30.55,WNW,302,2.0,3.0,84,0.00,,---,0.00,VWS V14.00,2013-12-07 09:37:00,
2013-12-07 03:40:00,4.9,0.9,30.55,WNW,300,2.0,3.0,83,0.00,,---,0.00,VWS V14.00,2013-12-07 09:40:00,
2013-12-07 03:42:00,4.9,0.9,30.55,WNW,302,0.0,2.0,83,0.00,,---,0.00,VWS V14.00,2013-12-07 09:42:00,
2013-12-07 03:45:00,4.8,0.8,30.55,WNW,299,2.0,4.0,83,0.00,,---,0.00,VWS V14.00,2013-12-07 09:45:00,
2013-12-07 03:47:00,4.8,0.8,30.55,NNW,329,0.0,5.0,83,0.00,,---,0.00,VWS V14.00,2013-12-07 09:47:00,
2013-12-07 03:50:00,4.8,1.0,30.55,NW,317,3.0,5.0,84,0.00,,---,0.00,VWS V14.00,2013-12-07 09:50:00,
2013-12-07 03:52:00,4.7,0.9,30.55,NW,321,0.0,4.0,84,0.00,,---,0.00,VWS V14.00,2013-12-07 09:52:00,
2013-12-07 03:55:00,4.7,0.9,30.55,NW,307,0.0,4.0,84,0.00,,---,0.00,VWS V14.00,2013-12-07 09:55:00,
2013-12-07 03:57:00,4.6,0.8,30.56,NW,307,0.0,3.0,84,0.00,,---,0.00,VWS V14.00,2013-12-07 09:57:00,
2013-12-07 04:00:00,4.6,0.8,30.56,NW,307,0.0,3.0,84,0.00,,---,0.00,VWS V14.00,2013-12-07 10:00:00,
2013-12-07 04:02:00,4.5,0.7,30.56,NW,307,0.0,1.0,84,0.00,,---,0.00,VWS V14.00,2013-12-07 10:02:00,
2013-12-07 04:05:00,4.5,0.7,30.56,NW,307,0.0,3.0,84,0.00,,---,0.00,VWS V14.00,2013-12-07 10:05:00,
2013-12-07 04:07:00,4.4,0.6,30.56,WNW,299,0.0,2.0,84,0.00,,---,0.00,VWS V14.00,2013-12-07 10:07:00,
2013-12-07 04:10:00,4.4,0.6,30.56,WNW,299,0.0,2.0,84,0.00,,---,0.00,VWS V14.00,2013-12-07 10:10:00,
2013-12-07 04:12:00,4.4,0.6,30.57,NW,306,0.0,4.0,84,0.00,,---,0.00,VWS V14.00,2013-12-07 10:12:00,
2013-12-07 04:15:00,4.3,0.6,30.57,NNW,335,4.0,4.0,84,0.00,,---,0.00,VWS V14.00,2013-12-07 10:15:00,
2013-12-07 04:16:00,4.3,0.6,30.57,WNW,283,4.0,4.0,84,0.00,,---,0.00,VWS V14.00,2013-12-07 10:16:00,
2013-12-07 04:20:00,4.2,0.4,30.57,NW,319,0.0,4.0,84,0.00,,---,0.00,VWS V14.00,2013-12-07 10:20:00,
2013-12-07 04:22:00,4.2,0.4,30.57,NW,319,1.0,3.0,84,0.00,,---,0.00,VWS V14.00,2013-12-07 10:22:00,
2013-12-07 04:25:00,4.2,0.4,30.57,WNW,300,1.0,3.0,84,0.00,,---,0.00,VWS V14.00,2013-12-07 10:25:00,
2013-12-07 04:27:00,4.2,0.4,30.57,WNW,300,0.0,2.0,84,0.00,,---,0.00,VWS V14.00,2013-12-07 10:27:00,
2013-12-07 04:30:00,4.1,0.3,30.57,NW,316,0.0,4.0,84,0.00,,---,0.00,VWS V14.00,2013-12-07 10:30:00,
2013-12-07 04:31:00,4.1,0.3,30.57,NW,316,0.0,0.0,84,0.00,,---,0.00,VWS V14.00,2013-12-07 10:31:00,
2013-12-07 04:35:00,4.0,0.2,30.57,NW,315,0.0,0.0,84,0.00,,---,0.00,VWS V14.00,2013-12-07 10:35:00,
2013-12-07 04:36:00,4.0,0.2,30.57,NW,315,0.0,2.0,84,0.00,,---,0.00,VWS V14.00,2013-12-07 10:36:00,
2013-12-07 04:40:00,4.0,0.2,30.58,NW,316,0.0,2.0,84,0.00,,---,0.00,VWS V14.00,2013-12-07 10:40:00,
2013-12-07 04:41:00,3.8,0.1,30.58,NW,316,0.0,1.0,84,0.00,,---,0.00,VWS V14.00,2013-12-07 10:41:00,
2013-12-07 04:45:00,3.8,0.1,30.57,NW,316,0.0,1.0,84,0.00,,---,0.00,VWS V14.00,2013-12-07 10:45:00,
2013-12-07 04:47:00,3.8,0.1,30.58,NW,314,0.0,2.0,84,0.00,,---,0.00,VWS V14.00,2013-12-07 10:47:00,
2013-12-07 04:50:00,3.7,0.0,30.58,NW,317,0.0,4.0,84,0.00,,---,0.00,VWS V14.00,2013-12-07 10:50:00,
2013-12-07 04:52:00,3.7,0.0,30.58,NW,317,0.0,2.0,84,0.00,,---,0.00,VWS V14.00,2013-12-07 10:52:00,
2013-12-07 04:55:00,3.6,-0.1,30.58,NW,315,0.0,3.0,84,0.00,,---,0.00,VWS V14.00,2013-12-07 10:55:00,
2013-12-07 04:57:00,3.6,-0.1,30.58,NW,315,0.0,2.0,84,0.00,,---,0.00,VWS V14.00,2013-12-07 10:57:00,
2013-12-07 05:00:00,3.6,-0.1,30.58,NW,315,2.0,3.0,84,0.00,,---,0.00,VWS V14.00,2013-12-07 11:00:00,
2013-12-07 05:02:00,3.6,-0.1,30.58,NW,315,1.0,2.0,84,0.00,,---,0.00,VWS V14.00,2013-12-07 11:02:00,
2013-12-07 05:05:00,3.6,-0.1,30.58,NW,314,1.0,4.0,84,0.00,,---,0.00,VWS V14.00,2013-12-07 11:05:00,
2013-12-07 05:07:00,3.5,-0.2,30.58,NW,314,0.0,3.0,84,0.00,,---,0.00,VWS V14.00,2013-12-07 11:07:00,
2013-12-07 05:10:00,3.5,-0.2,30.58,NW,314,1.0,3.0,84,0.00,,---,0.00,VWS V14.00,2013-12-07 11:10:00,
2013-12-07 05:12:00,3.4,-0.3,30.58,NW,306,1.0,5.0,84,0.00,,---,0.00,VWS V14.00,2013-12-07 11:12:00,
2013-12-07 05:15:00,3.4,-0.1,30.58,WNW,298,0.0,5.0,85,0.00,,---,0.00,VWS V14.00,2013-12-07 11:15:00,
2013-12-07 05:17:00,3.4,-0.1,30.58,NW,316,4.0,4.0,85,0.00,,---,0.00,VWS V14.00,2013-12-07 11:17:00,
2013-12-07 05:20:00,3.4,-0.1,30.58,NW,319,0.0,6.0,85,0.00,,---,0.00,VWS V14.00,2013-12-07 11:20:00,
2013-12-07 05:21:00,3.3,-0.2,30.58,NW,317,3.0,5.0,85,0.00,,---,0.00,VWS V14.00,2013-12-07 11:21:00,
2013-12-07 05:25:00,3.3,-0.2,30.58,NW,321,1.0,5.0,85,0.00,,---,0.00,VWS V14.00,2013-12-07 11:25:00,
2013-12-07 05:26:00,3.3,-0.4,30.58,NNW,329,1.0,5.0,84,0.00,,---,0.00,VWS V14.00,2013-12-07 11:26:00,
2013-12-07 05:30:00,3.3,-0.4,30.58,NNW,346,1.0,6.0,84,0.00,,---,0.00,VWS V14.00,2013-12-07 11:30:00,
2013-12-07 05:31:00,3.2,-0.5,30.58,NW,315,4.0,8.0,84,0.00,,---,0.00,VWS V14.00,2013-12-07 11:31:00,
2013-12-07 05:35:00,3.2,-0.5,30.58,NW,311,3.0,8.0,84,0.00,,---,0.00,VWS V14.00,2013-12-07 11:35:00,
2013-12-07 05:36:00,3.2,-0.5,30.58,NW,311,0.0,4.0,84,0.00,,---,0.00,VWS V14.00,2013-12-07 11:36:00,
2013-12-07 05:40:00,3.1,-0.6,30.58,NW,321,0.0,6.0,84,0.00,,---,0.00,VWS V14.00,2013-12-07 11:40:00,
2013-12-07 05:41:00,3.1,-0.6,30.58,NW,321,3.0,3.0,84,0.00,,---,0.00,VWS V14.00,2013-12-07 11:41:00,
2013-12-07 05:45:00,3.0,-0.7,30.58,WNW,300,1.0,4.0,84,0.00,,---,0.00,VWS V14.00,2013-12-07 11:45:00,
2013-12-07 05:46:00,3.0,-0.7,30.58,NW,304,0.0,6.0,84,0.00,,---,0.00,VWS V14.00,2013-12-07 11:46:00,
2013-12-07 05:50:00,2.9,-0.8,30.58,NW,304,1.0,6.0,84,0.00,,---,0.00,VWS V14.00,2013-12-07 11:50:00,
2013-12-07 05:51:00,2.9,-0.8,30.58,WNW,303,2.0,5.0,84,0.00,,---,0.00,VWS V14.00,2013-12-07 11:51:00,
2013-12-07 05:55:00,2.8,-0.9,30.58,WNW,292,6.0,6.0,84,0.00,,---,0.00,VWS V14.00,2013-12-07 11:55:00,
2013-12-07 05:56:00,2.8,-0.9,30.58,WNW,286,0.0,6.0,84,0.00,,---,0.00,VWS V14.00,2013-12-07 11:56:00,
2013-12-07 06:00:00,2.8,-0.9,30.59,WNW,286,0.0,6.0,84,0.00,,---,0.00,VWS V14.00,2013-12-07 12:00:00,
2013-12-07 06:01:00,2.7,-1.0,30.59,WNW,286,1.0,3.0,84,0.00,,---,0.00,VWS V14.00,2013-12-07 12:01:00,
2013-12-07 06:05:00,2.7,-1.0,30.59,WNW,287,1.0,3.0,84,0.00,,---,0.00,VWS V14.00,2013-12-07 12:05:00,
2013-12-07 06:06:00,2.7,-1.0,30.59,WNW,287,2.0,3.0,84,0.00,,---,0.00,VWS V14.00,2013-12-07 12:06:00,
2013-12-07 06:10:00,2.6,-1.1,30.59,WNW,302,4.0,6.0,84,0.00,,---,0.00,VWS V14.00,2013-12-07 12:10:00,
2013-12-07 06:11:00,2.6,-1.1,30.59,WNW,302,1.0,5.0,84,0.00,,---,0.00,VWS V14.00,2013-12-07 12:11:00,
2013-12-07 06:15:00,2.6,-1.1,30.59,WNW,298,1.0,6.0,84,0.00,,---,0.00,VWS V14.00,2013-12-07 12:15:00,
2013-12-07 06:16:00,2.6,-1.1,30.60,WNW,298,0.0,2.0,84,0.00,,---,0.00,VWS V14.00,2013-12-07 12:16:00,
2013-12-07 06:20:00,2.6,-1.1,30.60,WNW,298,0.0,2.0,84,0.00,,---,0.00,VWS V14.00,2013-12-07 12:20:00,
2013-12-07 06:21:00,2.5,-1.2,30.60,NW,315,1.0,4.0,84,0.00,,---,0.00,VWS V14.00,2013-12-07 12:21:00,
2013-12-07 06:25:00,2.5,-1.2,30.60,NW,314,0.0,4.0,84,0.00,,---,0.00,VWS V14.00,2013-12-07 12:25:00,
2013-12-07 06:26:00,2.4,-1.3,30.60,West,275,0.0,3.0,84,0.00,,---,0.00,VWS V14.00,2013-12-07 12:26:00,
2013-12-07 06:30:00,2.4,-1.3,30.60,West,275,0.0,3.0,84,0.00,,---,0.00,VWS V14.00,2013-12-07 12:30:00,
2013-12-07 06:31:00,2.4,-1.3,30.60,WNW,295,2.0,5.0,84,0.00,,---,0.00,VWS V14.00,2013-12-07 12:31:00,
2013-12-07 06:35:00,2.3,-1.4,30.60,WNW,295,1.0,5.0,84,0.00,,---,0.00,VWS V14.00,2013-12-07 12:35:00,
2013-12-07 06:36:00,2.3,-1.4,30.61,WNW,298,1.0,4.0,84,0.00,,---,0.00,VWS V14.00,2013-12-07 12:36:00,
2013-12-07 06:40:00,2.3,-1.4,30.60,WNW,302,0.0,4.0,84,0.00,,---,0.00,VWS V14.00,2013-12-07 12:40:00,
2013-12-07 06:41:00,2.3,-1.4,30.61,WNW,302,0.0,1.0,84,0.00,,---,0.00,VWS V14.00,2013-12-07 12:41:00,
2013-12-07 06:45:00,2.2,-1.5,30.60,WNW,302,0.0,3.0,84,0.00,,---,0.00,VWS V14.00,2013-12-07 12:45:00,
2013-12-07 06:46:00,2.2,-1.5,30.61,NW,307,1.0,4.0,84,0.00,,---,0.00,VWS V14.00,2013-12-07 12:46:00,
2013-12-07 06:50:00,2.1,-1.6,30.61,NW,323,1.0,4.0,84,0.00,,---,0.00,VWS V14.00,2013-12-07 12:50:00,
2013-12-07 06:51:00,2.1,-1.6,30.61,NW,319,0.0,2.0,84,0.00,,---,0.00,VWS V14.00,2013-12-07 12:51:00,
2013-12-07 06:55:00,2.0,-1.7,30.61,NW,315,2.0,3.0,84,0.00,,---,0.00,VWS V14.00,2013-12-07 12:55:00,
2013-12-07 06:56:00,2.0,-1.7,30.61,NW,315,0.0,2.0,84,0.00,,---,0.00,VWS V14.00,2013-12-07 12:56:00,
2013-12-07 07:00:00,2.0,-1.7,30.61,NW,321,0.0,3.0,84,0.00,,---,0.00,VWS V14.00,2013-12-07 13:00:00,
2013-12-07 07:01:00,2.0,-1.7,30.61,NW,321,0.0,1.0,84,0.00,,---,0.00,VWS V14.00,2013-12-07 13:01:00,
2013-12-07 07:05:00,1.9,-1.8,30.61,NW,321,1.0,1.0,84,0.00,,---,0.00,VWS V14.00,2013-12-07 13:05:00,
2013-12-07 07:06:00,1.9,-1.8,30.61,NW,308,0.0,3.0,84,0.00,,---,0.00,VWS V14.00,2013-12-07 13:06:00,
2013-12-07 07:10:00,1.9,-1.8,30.61,NW,308,0.0,3.0,84,0.00,,---,0.00,VWS V14.00,2013-12-07 13:10:00,
2013-12-07 07:11:00,1.9,-1.8,30.61,NW,307,0.0,1.0,84,0.00,,---,0.00,VWS V14.00,2013-12-07 13:11:00,
2013-12-07 07:15:00,1.8,-1.9,30.62,NW,308,0.0,2.0,84,0.00,,---,0.00,VWS V14.00,2013-12-07 13:15:00,
2013-12-07 07:16:00,1.8,-1.9,30.62,NW,308,0.0,1.0,84,0.00,,---,0.00,VWS V14.00,2013-12-07 13:16:00,
2013-12-07 07:20:00,1.8,-1.9,30.62,NW,308,0.0,1.0,84,0.00,,---,0.00,VWS V14.00,2013-12-07 13:20:00,
2013-12-07 07:21:00,1.8,-1.9,30.62,NW,308,0.0,0.0,84,0.00,,---,0.00,VWS V14.00,2013-12-07 13:21:00,
2013-12-07 07:25:00,1.8,-1.9,30.62,NW,307,1.0,1.0,84,0.00,,---,0.00,VWS V14.00,2013-12-07 13:25:00,
2013-12-07 07:26:00,1.7,-2.0,30.62,NW,307,0.0,3.0,84,0.00,,---,0.00,VWS V14.00,2013-12-07 13:26:00,
2013-12-07 07:30:00,1.8,-1.9,30.62,NW,308,0.0,3.0,84,0.00,,---,0.00,VWS V14.00,2013-12-07 13:30:00,
2013-12-07 07:31:00,1.7,-2.0,30.62,NW,307,0.0,3.0,84,0.00,,---,0.00,VWS V14.00,2013-12-07 13:31:00,
2013-12-07 07:35:00,1.8,-1.7,30.62,NW,308,0.0,3.0,85,0.00,,---,0.00,VWS V14.00,2013-12-07 13:35:00,
2013-12-07 07:36:00,1.9,-1.8,30.62,NW,308,0.0,0.0,84,0.00,,---,0.00,VWS V14.00,2013-12-07 13:36:00,
2013-12-07 07:40:00,2.0,-1.5,30.62,NW,307,0.0,0.0,85,0.00,,---,0.00,VWS V14.00,2013-12-07 13:40:00,
2013-12-07 07:41:00,2.2,-1.3,30.62,NW,308,0.0,2.0,85,0.00,,---,0.00,VWS V14.00,2013-12-07 13:41:00,
2013-12-07 07:45:00,2.4,-1.1,30.62,NW,307,0.0,3.0,85,0.00,,---,0.00,VWS V14.00,2013-12-07 13:45:00,
2013-12-07 07:46:00,2.6,-0.9,30.62,West,280,3.0,4.0,85,0.00,,---,0.00,VWS V14.00,2013-12-07 13:46:00,
2013-12-07 07:50:00,2.8,-0.7,30.62,NW,304,0.0,4.0,85,0.00,,---,0.00,VWS V14.00,2013-12-07 13:50:00,
2013-12-07 07:51:00,2.9,-0.6,30.62,NW,309,0.0,3.0,85,0.00,,---,0.00,VWS V14.00,2013-12-07 13:51:00,
2013-12-07 07:55:00,3.1,-0.4,30.62,WNW,285,1.0,4.0,85,0.00,,---,0.00,VWS V14.00,2013-12-07 13:55:00,
2013-12-07 07:56:00,3.2,-0.3,30.62,WNW,295,0.0,2.0,85,0.00,,---,0.00,VWS V14.00,2013-12-07 13:56:00,
2013-12-07 08:00:00,3.5,0.0,30.62,WNW,295,0.0,2.0,85,0.00,,---,0.00,VWS V14.00,2013-12-07 14:00:00,
2013-12-07 08:01:00,3.7,0.2,30.62,WNW,294,2.0,5.0,85,0.00,,---,0.00,VWS V14.00,2013-12-07 14:01:00,
2013-12-07 08:05:00,3.7,0.0,30.62,NW,309,0.0,5.0,84,0.00,,---,0.00,VWS V14.00,2013-12-07 14:05:00,
2013-12-07 08:06:00,3.8,0.1,30.62,NW,309,2.0,3.0,84,0.00,,---,0.00,VWS V14.00,2013-12-07 14:06:00,
2013-12-07 08:10:00,3.8,0.1,30.62,WNW,291,2.0,4.0,84,0.00,,---,0.00,VWS V14.00,2013-12-07 14:10:00,
2013-12-07 08:11:00,3.8,0.1,30.63,West,262,3.0,6.0,84,0.00,,---,0.00,VWS V14.00,2013-12-07 14:11:00,
2013-12-07 08:15:00,3.8,0.1,30.63,WNW,292,0.0,6.0,84,0.00,,---,0.00,VWS V14.00,2013-12-07 14:15:00,
2013-12-07 08:16:00,4.0,0.2,30.63,NNW,330,2.0,5.0,84,0.00,,---,0.00,VWS V14.00,2013-12-07 14:16:00,
2013-12-07 08:20:00,4.0,0.2,30.62,NW,314,4.0,9.0,84,0.00,,---,0.00,VWS V14.00,2013-12-07 14:20:00,
2013-12-07 08:21:00,3.9,-0.1,30.62,WNW,303,2.0,8.0,83,0.00,,---,0.00,VWS V14.00,2013-12-07 14:21:00,
2013-12-07 08:25:00,3.9,-0.1,30.63,NW,321,2.0,8.0,83,0.00,,---,0.00,VWS V14.00,2013-12-07 14:25:00,
2013-12-07 08:26:00,4.0,0.0,30.63,NW,316,2.0,5.0,83,0.00,,---,0.00,VWS V14.00,2013-12-07 14:26:00,
2013-12-07 08:30:00,4.0,0.0,30.63,WSW,248,4.0,5.0,83,0.00,,---,0.00,VWS V14.00,2013-12-07 14:30:00,
2013-12-07 08:31:00,4.2,0.2,30.63,WNW,292,1.0,4.0,83,0.00,,---,0.00,VWS V14.00,2013-12-07 14:31:00,
2013-12-07 08:35:00,4.4,0.4,30.63,NW,321,3.0,4.0,83,0.00,,---,0.00,VWS V14.00,2013-12-07 14:35:00,
2013-12-07 08:36:00,4.5,0.2,30.63,WNW,294,0.0,6.0,82,0.00,,---,0.00,VWS V14.00,2013-12-07 14:36:00,
2013-12-07 08:40:00,4.4,0.1,30.64,WNW,295,2.0,11.0,82,0.00,,---,0.00,VWS V14.00,2013-12-07 14:40:00,
2013-12-07 08:41:00,4.4,-0.1,30.64,WNW,286,2.0,3.0,81,0.00,,---,0.00,VWS V14.00,2013-12-07 14:41:00,
2013-12-07 08:45:00,4.5,0.0,30.63,NW,317,2.0,12.0,81,0.00,,---,0.00,VWS V14.00,2013-12-07 14:45:00,
2013-12-07 08:46:00,4.4,-0.4,30.64,NNW,333,3.0,9.0,80,0.00,,---,0.00,VWS V14.00,2013-12-07 14:46:00,
2013-12-07 08:50:00,4.5,0.0,30.64,NW,310,0.0,9.0,81,0.00,,---,0.00,VWS V14.00,2013-12-07 14:50:00,
2013-12-07 08:51:00,4.7,0.2,30.64,WNW,302,1.0,5.0,81,0.00,,---,0.00,VWS V14.00,2013-12-07 14:51:00,
2013-12-07 08:55:00,4.8,0.3,30.63,West,280,1.0,5.0,81,0.00,,---,0.00,VWS V14.00,2013-12-07 14:55:00,
2013-12-07 08:56:00,5.1,0.6,30.64,WNW,291,2.0,4.0,81,0.00,,---,0.00,VWS V14.00,2013-12-07 14:56:00,
2013-12-07 09:00:00,5.4,0.9,30.64,NW,326,5.0,5.0,81,0.00,,---,0.00,VWS V14.00,2013-12-07 15:00:00,
2013-12-07 09:01:00,5.6,1.0,30.64,NW,315,0.0,5.0,81,0.00,,---,0.00,VWS V14.00,2013-12-07 15:01:00,
2013-12-07 09:05:00,5.8,1.2,30.64,WNW,294,0.0,5.0,81,0.00,,---,0.00,VWS V14.00,2013-12-07 15:05:00,
2013-12-07 09:06:00,6.0,1.2,30.64,WNW,295,4.0,4.0,80,0.00,,---,0.00,VWS V14.00,2013-12-07 15:06:00,
2013-12-07 09:10:00,5.8,0.7,30.64,West,260,0.0,7.0,79,0.00,,---,0.00,VWS V14.00,2013-12-07 15:10:00,
2013-12-07 09:11:00,5.7,0.6,30.64,NNW,332,2.0,5.0,79,0.00,,---,0.00,VWS V14.00,2013-12-07 15:11:00,
2013-12-07 09:15:00,5.6,0.5,30.64,West,275,2.0,6.0,79,0.00,,---,0.00,VWS V14.00,2013-12-07 15:15:00,
2013-12-07 09:16:00,5.3,0.2,30.64,NNW,333,2.0,7.0,79,0.00,,---,0.00,VWS V14.00,2013-12-07 15:16:00,
2013-12-07 09:20:00,5.4,0.6,30.64,NW,311,6.0,9.0,80,0.00,,---,0.00,VWS V14.00,2013-12-07 15:20:00,
2013-12-07 09:21:00,5.4,0.3,30.65,WNW,300,2.0,6.0,79,0.00,,---,0.00,VWS V14.00,2013-12-07 15:21:00,
2013-12-07 09:25:00,5.4,0.6,30.65,NW,322,2.0,6.0,80,0.00,,---,0.00,VWS V14.00,2013-12-07 15:25:00,
2013-12-07 09:26:00,5.6,0.8,30.64,NW,326,4.0,4.0,80,0.00,,---,0.00,VWS V14.00,2013-12-07 15:26:00,
2013-12-07 09:30:00,5.8,1.0,30.64,NNW,331,3.0,7.0,80,0.00,,---,0.00,VWS V14.00,2013-12-07 15:30:00,
2013-12-07 09:31:00,5.7,0.9,30.64,NNW,332,6.0,11.0,80,0.00,,---,0.00,VWS V14.00,2013-12-07 15:31:00,
2013-12-07 09:35:00,5.8,1.0,30.64,WNW,303,2.0,11.0,80,0.00,,---,0.00,VWS V14.00,2013-12-07 15:35:00,
2013-12-07 09:36:00,5.9,0.8,30.64,NW,313,3.0,5.0,79,0.00,,---,0.00,VWS V14.00,2013-12-07 15:36:00,
2013-12-07 09:40:00,5.9,0.8,30.64,NW,324,2.0,6.0,79,0.00,,---,0.00,VWS V14.00,2013-12-07 15:40:00,
2013-12-07 09:41:00,6.0,0.9,30.64,WNW,298,5.0,10.0,79,0.00,,---,0.00,VWS V14.00,2013-12-07 15:41:00,
2013-12-07 09:45:00,6.0,0.9,30.64,NW,309,1.0,10.0,79,0.00,,---,0.00,VWS V14.00,2013-12-07 15:45:00,
2013-12-07 09:46:00,6.1,1.0,30.64,NW,311,4.0,7.0,79,0.00,,---,0.00,VWS V14.00,2013-12-07 15:46:00,
2013-12-07 09:50:00,6.3,1.2,30.64,NW,314,2.0,7.0,79,0.00,,---,0.00,VWS V14.00,2013-12-07 15:50:00,
2013-12-07 09:51:00,6.5,1.4,30.64,NW,317,0.0,5.0,79,0.00,,---,0.00,VWS V14.00,2013-12-07 15:51:00,
2013-12-07 09:55:00,6.8,1.7,30.64,NW,309,2.0,7.0,79,0.00,,---,0.00,VWS V14.00,2013-12-07 15:55:00,
2013-12-07 09:56:00,6.8,1.4,30.64,NW,305,3.0,9.0,78,0.00,,---,0.00,VWS V14.00,2013-12-07 15:56:00,
2013-12-07 10:00:00,6.9,1.5,30.64,NNW,336,6.0,9.0,78,0.00,,---,0.00,VWS V14.00,2013-12-07 16:00:00,
2013-12-07 10:01:00,7.0,1.6,30.64,NW,317,2.0,7.0,78,0.00,,---,0.00,VWS V14.00,2013-12-07 16:01:00,
2013-12-07 10:05:00,7.1,1.7,30.64,NNW,328,0.0,7.0,78,0.00,,---,0.00,VWS V14.00,2013-12-07 16:05:00,
2013-12-07 10:06:00,7.4,2.0,30.64,WNW,298,2.0,5.0,78,0.00,,---,0.00,VWS V14.00,2013-12-07 16:06:00,
2013-12-07 10:10:00,7.7,2.3,30.64,NW,311,5.0,5.0,78,0.00,,---,0.00,VWS V14.00,2013-12-07 16:10:00,
2013-12-07 10:11:00,8.0,2.6,30.65,NW,310,1.0,5.0,78,0.00,,---,0.00,VWS V14.00,2013-12-07 16:11:00,
2013-12-07 10:15:00,8.2,2.8,30.65,WNW,288,1.0,5.0,78,0.00,,---,0.00,VWS V14.00,2013-12-07 16:15:00,
2013-12-07 10:16:00,8.5,3.1,30.65,NW,321,2.0,5.0,78,0.00,,---,0.00,VWS V14.00,2013-12-07 16:16:00,
2013-12-07 10:20:00,8.4,2.7,30.65,NNW,332,3.0,9.0,77,0.00,,---,0.00,VWS V14.00,2013-12-07 16:20:00,
2013-12-07 10:21:00,8.2,2.2,30.65,NW,317,3.0,6.0,76,0.00,,---,0.00,VWS V14.00,2013-12-07 16:21:00,
2013-12-07 10:25:00,8.1,2.1,30.65,NNW,340,5.0,9.0,76,0.00,,---,0.00,VWS V14.00,2013-12-07 16:25:00,
2013-12-07 10:26:00,8.1,2.1,30.65,NW,319,3.0,8.0,76,0.00,,---,0.00,VWS V14.00,2013-12-07 16:26:00,
2013-12-07 10:30:00,8.2,2.5,30.65,West,280,2.0,9.0,77,0.00,,---,0.00,VWS V14.00,2013-12-07 16:30:00,
2013-12-07 10:31:00,8.2,2.5,30.65,WNW,302,3.0,8.0,77,0.00,,---,0.00,VWS V14.00,2013-12-07 16:31:00,
2013-12-07 10:35:00,8.5,2.8,30.65,WNW,284,3.0,8.0,77,0.00,,---,0.00,VWS V14.00,2013-12-07 16:35:00,
2013-12-07 10:36:00,8.6,2.6,30.65,NNW,334,0.0,6.0,76,0.00,,---,0.00,VWS V14.00,2013-12-07 16:36:00,
2013-12-07 10:40:00,8.8,2.8,30.65,NW,308,6.0,9.0,76,0.00,,---,0.00,VWS V14.00,2013-12-07 16:40:00,
2013-12-07 10:41:00,8.7,2.4,30.65,NW,313,2.0,8.0,75,0.00,,---,0.00,VWS V14.00,2013-12-07 16:41:00,
2013-12-07 10:45:00,8.6,2.0,30.65,NW,315,0.0,8.0,74,0.00,,---,0.00,VWS V14.00,2013-12-07 16:45:00,
2013-12-07 10:46:00,8.8,2.5,30.65,NW,319,5.0,6.0,75,0.00,,---,0.00,VWS V14.00,2013-12-07 16:46:00,
2013-12-07 10:50:00,9.0,2.7,30.65,West,280,2.0,10.0,75,0.00,,---,0.00,VWS V14.00,2013-12-07 16:50:00,
2013-12-07 10:51:00,9.0,2.4,30.65,NW,311,4.0,5.0,74,0.00,,---,0.00,VWS V14.00,2013-12-07 16:51:00,
2013-12-07 10:55:00,9.2,2.9,30.64,NW,313,4.0,7.0,75,0.00,,---,0.00,VWS V14.00,2013-12-07 16:55:00,
2013-12-07 10:56:00,9.4,3.1,30.65,NW,312,3.0,5.0,75,0.00,,---,0.00,VWS V14.00,2013-12-07 16:56:00,
2013-12-07 11:00:00,9.4,2.8,30.64,WNW,290,1.0,5.0,74,0.00,,---,0.00,VWS V14.00,2013-12-07 17:00:00,
2013-12-07 11:01:00,9.6,3.3,30.64,West,262,3.0,7.0,75,0.00,,---,0.00,VWS V14.00,2013-12-07 17:01:00,
2013-12-07 11:05:00,9.9,3.6,30.64,NW,322,5.0,7.0,75,0.00,,---,0.00,VWS V14.00,2013-12-07 17:05:00,
2013-12-07 11:06:00,9.9,3.3,30.64,NW,316,4.0,9.0,74,0.00,,---,0.00,VWS V14.00,2013-12-07 17:06:00,
2013-12-07 11:10:00,10.0,3.4,30.64,West,261,5.0,9.0,74,0.00,,---,0.00,VWS V14.00,2013-12-07 17:10:00,
2013-12-07 11:11:00,10.1,3.5,30.64,WSW,254,0.0,7.0,74,0.00,,---,0.00,VWS V14.00,2013-12-07 17:11:00,
2013-12-07 11:15:00,10.5,3.9,30.64,WNW,282,0.0,7.0,74,0.00,,---,0.00,VWS V14.00,2013-12-07 17:15:00,
2013-12-07 11:16:00,10.7,3.8,30.64,WSW,257,0.0,4.0,73,0.00,,---,0.00,VWS V14.00,2013-12-07 17:16:00,
2013-12-07 11:20:00,10.7,3.8,30.63,NW,317,0.0,5.0,73,0.00,,---,0.00,VWS V14.00,2013-12-07 17:20:00,
2013-12-07 11:21:00,10.8,3.9,30.63,NW,322,4.0,5.0,73,0.00,,---,0.00,VWS V14.00,2013-12-07 17:21:00,
2013-12-07 11:25:00,10.7,3.8,30.63,NW,315,2.0,6.0,73,0.00,,---,0.00,VWS V14.00,2013-12-07 17:25:00,
2013-12-07 11:26:00,10.8,3.6,30.63,SW,215,2.0,5.0,72,0.00,,---,0.00,VWS V14.00,2013-12-07 17:26:00,
2013-12-07 11:30:00,11.2,4.2,30.63,SE,142,1.0,5.0,73,0.00,,---,0.00,VWS V14.00,2013-12-07 17:30:00,
2013-12-07 11:31:00,11.3,4.3,30.63,NW,308,2.0,6.0,73,0.00,,---,0.00,VWS V14.00,2013-12-07 17:31:00,
2013-12-07 11:35:00,11.3,4.1,30.63,NW,315,0.0,6.0,72,0.00,,---,0.00,VWS V14.00,2013-12-07 17:35:00,
2013-12-07 11:36:00,11.2,3.7,30.63,NW,325,2.0,4.0,71,0.00,,---,0.00,VWS V14.00,2013-12-07 17:36:00,
2013-12-07 11:40:00,11.3,4.1,30.63,WSW,248,4.0,6.0,72,0.00,,---,0.00,VWS V14.00,2013-12-07 17:40:00,
2013-12-07 11:41:00,11.3,3.7,30.63,SSW,197,1.0,4.0,71,0.00,,---,0.00,VWS V14.00,2013-12-07 17:41:00,
2013-12-07 11:45:00,11.4,3.8,30.63,WSW,248,4.0,7.0,71,0.00,,---,0.00,VWS V14.00,2013-12-07 17:45:00,
2013-12-07 11:46:00,11.4,3.8,30.62,NW,314,4.0,5.0,71,0.00,,---,0.00,VWS V14.00,2013-12-07 17:46:00,
2013-12-07 11:50:00,11.4,3.5,30.62,WSW,242,2.0,6.0,70,0.00,,---,0.00,VWS V14.00,2013-12-07 17:50:00,
2013-12-07 11:51:00,11.4,3.5,30.62,SW,222,0.0,3.0,70,0.00,,---,0.00,VWS V14.00,2013-12-07 17:51:00,
2013-12-07 11:55:00,11.5,3.6,30.62,WNW,292,0.0,3.0,70,0.00,,---,0.00,VWS V14.00,2013-12-07 17:55:00,
2013-12-07 11:56:00,11.7,4.1,30.62,WSW,241,2.0,7.0,71,0.00,,---,0.00,VWS V14.00,2013-12-07 17:56:00,
2013-12-07 12:00:00,11.9,3.7,30.62,South,184,6.0,9.0,69,0.00,,---,0.00,VWS V14.00,2013-12-07 18:00:00,
2013-12-07 12:01:00,12.0,3.5,30.62,WSW,238,0.0,9.0,68,0.00,,---,0.00,VWS V14.00,2013-12-07 18:01:00,
2013-12-07 12:05:00,12.2,3.7,30.61,SW,223,0.0,9.0,68,0.00,,---,0.00,VWS V14.00,2013-12-07 18:05:00,
2013-12-07 12:06:00,12.3,3.8,30.61,West,281,4.0,5.0,68,0.00,,---,0.00,VWS V14.00,2013-12-07 18:06:00,
2013-12-07 12:10:00,12.4,3.9,30.61,NW,309,2.0,6.0,68,0.00,,---,0.00,VWS V14.00,2013-12-07 18:10:00,
2013-12-07 12:11:00,12.3,3.5,30.61,West,279,1.0,4.0,67,0.00,,---,0.00,VWS V14.00,2013-12-07 18:11:00,
2013-12-07 12:15:00,12.1,3.3,30.61,NW,309,3.0,7.0,67,0.00,,---,0.00,VWS V14.00,2013-12-07 18:15:00,
2013-12-07 12:16:00,12.0,2.8,30.61,NNW,333,0.0,4.0,66,0.00,,---,0.00,VWS V14.00,2013-12-07 18:16:00,
2013-12-07 12:20:00,12.1,3.6,30.61,NW,304,4.0,10.0,68,0.00,,---,0.00,VWS V14.00,2013-12-07 18:20:00,
2013-12-07 12:21:00,12.2,3.3,30.61,NW,304,4.0,7.0,67,0.00,,---,0.00,VWS V14.00,2013-12-07 18:21:00,
2013-12-07 12:25:00,12.2,3.3,30.61,NW,326,4.0,11.0,67,0.00,,---,0.00,VWS V14.00,2013-12-07 18:25:00,
2013-12-07 12:26:00,12.1,2.9,30.61,NW,318,3.0,7.0,66,0.00,,---,0.00,VWS V14.00,2013-12-07 18:26:00,
2013-12-07 12:30:00,12.2,3.0,30.61,SW,228,1.0,7.0,66,0.00,,---,0.00,VWS V14.00,2013-12-07 18:30:00,
2013-12-07 12:31:00,12.3,3.1,30.61,West,269,1.0,5.0,66,0.00,,---,0.00,VWS V14.00,2013-12-07 18:31:00,
2013-12-07 12:35:00,12.5,3.3,30.60,NW,313,3.0,7.0,66,0.00,,---,0.00,VWS V14.00,2013-12-07 18:35:00,
2013-12-07 12:36:00,12.6,3.1,30.60,NW,322,0.0,4.0,65,0.00,,---,0.00,VWS V14.00,2013-12-07 18:36:00,
2013-12-07 12:40:00,12.7,3.2,30.60,NNW,346,0.0,6.0,65,0.00,,---,0.00,VWS V14.00,2013-12-07 18:40:00,
2013-12-07 12:41:00,12.8,3.3,30.60,NW,315,0.0,4.0,65,0.00,,---,0.00,VWS V14.00,2013-12-07 18:41:00,
2013-12-07 12:45:00,13.2,3.7,30.60,West,273,4.0,7.0,65,0.00,,---,0.00,VWS V14.00,2013-12-07 18:45:00,
2013-12-07 12:46:00,13.4,3.5,30.60,South,172,3.0,4.0,64,0.00,,---,0.00,VWS V14.00,2013-12-07 18:46:00,
2013-12-07 12:50:00,13.5,3.6,30.60,WSW,248,0.0,5.0,64,0.00,,---,0.00,VWS V14.00,2013-12-07 18:50:00,
2013-12-07 12:51:00,13.7,3.8,30.60,South,186,1.0,2.0,64,0.00,,---,0.00,VWS V14.00,2013-12-07 18:51:00,
2013-12-07 12:55:00,13.9,3.6,30.60,WNW,294,1.0,6.0,63,0.00,,---,0.00,VWS V14.00,2013-12-07 18:55:00,
2013-12-07 12:56:00,14.0,3.7,30.60,SW,226,0.0,4.0,63,0.00,,---,0.00,VWS V14.00,2013-12-07 18:56:00,
2013-12-07 13:00:00,14.0,3.4,30.60,WSW,257,3.0,4.0,62,0.00,,---,0.00,VWS V14.00,2013-12-07 19:00:00,
2013-12-07 13:01:00,13.8,2.8,30.60,South,187,0.0,3.0,61,0.00,,---,0.00,VWS V14.00,2013-12-07 19:01:00,
2013-12-07 13:05:00,13.7,3.1,30.60,West,277,0.0,3.0,62,0.00,,---,0.00,VWS V14.00,2013-12-07 19:05:00,
2013-12-07 13:06:00,13.8,3.2,30.60,WSW,242,0.0,5.0,62,0.00,,---,0.00,VWS V14.00,2013-12-07 19:06:00,
2013-12-07 13:10:00,13.9,3.3,30.60,SW,234,5.0,5.0,62,0.00,,---,0.00,VWS V14.00,2013-12-07 19:10:00,
2013-12-07 13:11:00,14.1,3.5,30.60,West,278,0.0,5.0,62,0.00,,---,0.00,VWS V14.00,2013-12-07 19:11:00,
2013-12-07 13:15:00,14.3,3.3,30.60,SSE,164,1.0,5.0,61,0.00,,---,0.00,VWS V14.00,2013-12-07 19:15:00,
2013-12-07 13:16:00,14.3,3.0,30.60,South,187,0.0,6.0,60,0.00,,---,0.00,VWS V14.00,2013-12-07 19:16:00,
2013-12-07 13:20:00,14.5,3.5,30.60,South,188,0.0,6.0,61,0.00,,---,0.00,VWS V14.00,2013-12-07 19:20:00,
2013-12-07 13:21:00,14.7,3.7,30.59,West,262,3.0,6.0,61,0.00,,---,0.00,VWS V14.00,2013-12-07 19:21:00,
2013-12-07 13:25:00,14.7,3.3,30.59,West,259,0.0,6.0,60,0.00,,---,0.00,VWS V14.00,2013-12-07 19:25:00,
2013-12-07 13:26:00,14.8,3.4,30.59,SW,225,4.0,5.0,60,0.00,,---,0.00,VWS V14.00,2013-12-07 19:26:00,
2013-12-07 13:30:00,14.8,3.4,30.59,WSW,256,0.0,5.0,60,0.00,,---,0.00,VWS V14.00,2013-12-07 19:30:00,
2013-12-07 13:31:00,14.6,3.2,30.58,SE,133,0.0,7.0,60,0.00,,---,0.00,VWS V14.00,2013-12-07 19:31:00,
2013-12-07 13:35:00,14.3,2.6,30.58,SSW,198,0.0,7.0,59,0.00,,---,0.00,VWS V14.00,2013-12-07 19:35:00,
2013-12-07 13:36:00,14.4,3.4,30.58,ESE,119,1.0,2.0,61,0.00,,---,0.00,VWS V14.00,2013-12-07 19:36:00,
2013-12-07 13:40:00,14.8,3.8,30.58,WSW,242,1.0,3.0,61,0.00,,---,0.00,VWS V14.00,2013-12-07 19:40:00,
2013-12-07 13:41:00,15.1,3.7,30.58,South,179,4.0,5.0,60,0.00,,---,0.00,VWS V14.00,2013-12-07 19:41:00,
2013-12-07 13:45:00,15.2,3.8,30.58,NW,314,4.0,6.0,60,0.00,,---,0.00,VWS V14.00,2013-12-07 19:45:00,
2013-12-07 13:46:00,15.1,3.4,30.58,WNW,301,0.0,4.0,59,0.00,,---,0.00,VWS V14.00,2013-12-07 19:46:00,
2013-12-07 13:50:00,15.2,3.8,30.58,South,176,1.0,4.0,60,0.00,,---,0.00,VWS V14.00,2013-12-07 19:50:00,
2013-12-07 13:51:00,15.2,3.5,30.58,SSE,160,0.0,3.0,59,0.00,,---,0.00,VWS V14.00,2013-12-07 19:51:00,
2013-12-07 13:55:00,15.2,3.1,30.58,SW,232,0.0,3.0,58,0.00,,---,0.00,VWS V14.00,2013-12-07 19:55:00,
2013-12-07 13:56:00,15.3,3.2,30.58,West,268,0.0,3.0,58,0.00,,---,0.00,VWS V14.00,2013-12-07 19:56:00,
2013-12-07 14:00:00,15.4,3.3,30.58,WNW,283,1.0,4.0,58,0.00,,---,0.00,VWS V14.00,2013-12-07 20:00:00,
2013-12-07 14:01:00,15.3,2.8,30.59,West,267,0.0,4.0,57,0.00,,---,0.00,VWS V14.00,2013-12-07 20:01:00,
2013-12-07 14:05:00,15.3,2.8,30.58,NW,317,5.0,5.0,57,0.00,,---,0.00,VWS V14.00,2013-12-07 20:05:00,
2013-12-07 14:06:00,15.1,2.6,30.59,North,350,2.0,6.0,57,0.00,,---,0.00,VWS V14.00,2013-12-07 20:06:00,
2013-12-07 14:10:00,14.9,2.4,30.58,NW,321,0.0,6.0,57,0.00,,---,0.00,VWS V14.00,2013-12-07 20:10:00,
2013-12-07 14:11:00,14.9,2.8,30.58,NW,321,0.0,2.0,58,0.00,,---,0.00,VWS V14.00,2013-12-07 20:11:00,
2013-12-07 14:15:00,14.9,2.8,30.58,WNW,298,0.0,3.0,58,0.00,,---,0.00,VWS V14.00,2013-12-07 20:15:00,
2013-12-07 14:16:00,15.0,2.5,30.58,West,269,0.0,3.0,57,0.00,,---,0.00,VWS V14.00,2013-12-07 20:16:00,
2013-12-07 14:20:00,15.2,2.7,30.58,NW,313,0.0,4.0,57,0.00,,---,0.00,VWS V14.00,2013-12-07 20:20:00,
2013-12-07 14:21:00,15.3,2.8,30.58,NW,309,0.0,5.0,57,0.00,,---,0.00,VWS V14.00,2013-12-07 20:21:00,
2013-12-07 14:25:00,15.5,2.6,30.58,WSW,257,5.0,5.0,56,0.00,,---,0.00,VWS V14.00,2013-12-07 20:25:00,
2013-12-07 14:26:00,15.6,2.3,30.58,WNW,290,3.0,5.0,55,0.00,,---,0.00,VWS V14.00,2013-12-07 20:26:00,
2013-12-07 14:30:00,15.5,2.2,30.58,NW,310,0.0,5.0,55,0.00,,---,0.00,VWS V14.00,2013-12-07 20:30:00,
2013-12-07 14:31:00,15.4,1.7,30.58,NW,305,0.0,5.0,54,0.00,,---,0.00,VWS V14.00,2013-12-07 20:31:00,
2013-12-07 14:35:00,15.2,1.5,30.58,WNW,302,6.0,6.0,54,0.00,,---,0.00,VWS V14.00,2013-12-07 20:35:00,
2013-12-07 14:36:00,15.0,1.4,30.58,West,277,2.0,6.0,54,0.00,,---,0.00,VWS V14.00,2013-12-07 20:36:00,
2013-12-07 14:40:00,14.8,1.2,30.58,WNW,291,5.0,6.0,54,0.00,,---,0.00,VWS V14.00,2013-12-07 20:40:00,
2013-12-07 14:41:00,14.5,0.9,30.58,NW,316,1.0,6.0,54,0.00,,---,0.00,VWS V14.00,2013-12-07 20:41:00,
2013-12-07 14:45:00,14.2,1.0,30.58,WNW,300,0.0,6.0,55,0.00,,---,0.00,VWS V14.00,2013-12-07 20:45:00,
2013-12-07 14:46:00,14.1,0.9,30.58,WNW,291,4.0,4.0,55,0.00,,---,0.00,VWS V14.00,2013-12-07 20:46:00,
2013-12-07 14:50:00,14.1,0.9,30.59,West,268,0.0,6.0,55,0.00,,---,0.00,VWS V14.00,2013-12-07 20:50:00,
2013-12-07 14:51:00,14.1,0.9,30.59,West,277,0.0,4.0,55,0.00,,---,0.00,VWS V14.00,2013-12-07 20:51:00,
2013-12-07 14:55:00,14.1,0.9,30.59,NW,326,2.0,9.0,55,0.00,,---,0.00,VWS V14.00,2013-12-07 20:55:00,
2013-12-07 14:56:00,14.0,0.8,30.59,NW,318,1.0,4.0,55,0.00,,---,0.00,VWS V14.00,2013-12-07 20:56:00,
2013-12-07 15:00:00,14.0,0.8,30.59,NW,311,3.0,4.0,55,0.00,,---,0.00,VWS V14.00,2013-12-07 21:00:00,
2013-12-07 15:01:00,13.9,0.7,30.59,NW,304,0.0,3.0,55,0.00,,---,0.00,VWS V14.00,2013-12-07 21:01:00,
2013-12-07 15:05:00,13.9,1.1,30.59,NW,319,2.0,3.0,56,0.00,,---,0.00,VWS V14.00,2013-12-07 21:05:00,
2013-12-07 15:06:00,13.7,0.9,30.59,NW,304,0.0,3.0,56,0.00,,---,0.00,VWS V14.00,2013-12-07 21:06:00,
2013-12-07 15:10:00,13.6,0.8,30.59,WNW,295,0.0,3.0,56,0.00,,---,0.00,VWS V14.00,2013-12-07 21:10:00,
2013-12-07 15:11:00,13.6,1.2,30.59,WNW,293,0.0,1.0,57,0.00,,---,0.00,VWS V14.00,2013-12-07 21:11:00,
2013-12-07 15:15:00,13.5,1.5,30.58,West,279,1.0,3.0,58,0.00,,---,0.00,VWS V14.00,2013-12-07 21:15:00,
2013-12-07 15:16:00,13.4,1.4,30.59,West,279,0.0,2.0,58,0.00,,---,0.00,VWS V14.00,2013-12-07 21:16:00,
2013-12-07 15:20:00,13.4,1.0,30.59,SW,215,0.0,3.0,57,0.00,,---,0.00,VWS V14.00,2013-12-07 21:20:00,
2013-12-07 15:21:00,13.4,1.0,30.59,West,281,0.0,3.0,57,0.00,,---,0.00,VWS V14.00,2013-12-07 21:21:00,
2013-12-07 15:25:00,13.4,1.0,30.59,WNW,294,5.0,9.0,57,0.00,,---,0.00,VWS V14.00,2013-12-07 21:25:00,
2013-12-07 15:26:00,13.3,0.9,30.59,West,273,0.0,5.0,57,0.00,,---,0.00,VWS V14.00,2013-12-07 21:26:00,
2013-12-07 15:30:00,13.3,1.3,30.59,West,281,0.0,5.0,58,0.00,,---,0.00,VWS V14.00,2013-12-07 21:30:00,
2013-12-07 15:31:00,13.2,1.2,30.59,WNW,299,3.0,6.0,58,0.00,,---,0.00,VWS V14.00,2013-12-07 21:31:00,
2013-12-07 15:35:00,13.2,1.2,30.59,West,274,0.0,6.0,58,0.00,,---,0.00,VWS V14.00,2013-12-07 21:35:00,
2013-12-07 15:36:00,13.2,0.8,30.59,WSW,249,3.0,3.0,57,0.00,,---,0.00,VWS V14.00,2013-12-07 21:36:00,
2013-12-07 15:40:00,13.1,0.7,30.59,WNW,290,3.0,4.0,57,0.00,,---,0.00,VWS V14.00,2013-12-07 21:40:00,
2013-12-07 15:41:00,13.1,0.7,30.59,WNW,290,0.0,3.0,57,0.00,,---,0.00,VWS V14.00,2013-12-07 21:41:00,
2013-12-07 15:45:00,13.1,1.1,30.59,West,261,0.0,4.0,58,0.00,,---,0.00,VWS V14.00,2013-12-07 21:45:00,
2013-12-07 15:46:00,13.0,1.0,30.59,WSW,248,0.0,2.0,58,0.00,,---,0.00,VWS V14.00,2013-12-07 21:46:00,
2013-12-07 15:50:00,12.9,1.3,30.59,SW,234,0.0,2.0,59,0.00,,---,0.00,VWS V14.00,2013-12-07 21:50:00,
2013-12-07 15:51:00,12.9,1.3,30.59,West,279,1.0,3.0,59,0.00,,---,0.00,VWS V14.00,2013-12-07 21:51:00,
2013-12-07 15:55:00,12.8,1.2,30.59,West,281,2.0,3.0,59,0.00,,---,0.00,VWS V14.00,2013-12-07 21:55:00,
2013-12-07 15:56:00,12.7,1.1,30.59,West,281,0.0,3.0,59,0.00,,---,0.00,VWS V14.00,2013-12-07 21:56:00,
2013-12-07 16:00:00,12.7,1.1,30.58,West,280,0.0,3.0,59,0.00,,---,0.00,VWS V14.00,2013-12-07 22:00:00,
2013-12-07 16:01:00,12.6,1.0,30.59,West,280,1.0,2.0,59,0.00,,---,0.00,VWS V14.00,2013-12-07 22:01:00,
2013-12-07 16:05:00,12.6,1.0,30.59,WNW,287,0.0,4.0,59,0.00,,---,0.00,VWS V14.00,2013-12-07 22:05:00,
2013-12-07 16:06:00,12.5,0.9,30.59,West,267,1.0,6.0,59,0.00,,---,0.00,VWS V14.00,2013-12-07 22:06:00,
2013-12-07 16:10:00,12.5,0.9,30.58,West,273,0.0,6.0,59,0.00,,---,0.00,VWS V14.00,2013-12-07 22:10:00,
2013-12-07 16:11:00,12.4,0.8,30.58,West,273,0.0,2.0,59,0.00,,---,0.00,VWS V14.00,2013-12-07 22:11:00,
2013-12-07 16:15:00,12.4,1.2,30.58,West,273,0.0,2.0,60,0.00,,---,0.00,VWS V14.00,2013-12-07 22:15:00,
2013-12-07 16:17:00,12.3,1.1,30.58,West,276,0.0,2.0,60,0.00,,---,0.00,VWS V14.00,2013-12-07 22:17:00,
2013-12-07 16:20:00,12.2,1.3,30.58,West,276,0.0,2.0,61,0.00,,---,0.00,VWS V14.00,2013-12-07 22:20:00,
2013-12-07 16:21:00,12.1,1.2,30.58,West,276,1.0,1.0,61,0.00,,---,0.00,VWS V14.00,2013-12-07 22:21:00,
2013-12-07 16:25:00,12.1,1.2,30.58,West,276,0.0,2.0,61,0.00,,---,0.00,VWS V14.00,2013-12-07 22:25:00,
2013-12-07 16:26:00,12.0,1.1,30.58,West,276,0.0,2.0,61,0.00,,---,0.00,VWS V14.00,2013-12-07 22:26:00,
2013-12-07 16:30:00,12.0,1.5,30.58,West,276,0.0,2.0,62,0.00,,---,0.00,VWS V14.00,2013-12-07 22:30:00,
2013-12-07 16:32:00,11.9,1.4,30.58,West,276,0.0,0.0,62,0.00,,---,0.00,VWS V14.00,2013-12-07 22:32:00,
2013-12-07 16:35:00,11.8,1.3,30.58,West,276,0.0,1.0,62,0.00,,---,0.00,VWS V14.00,2013-12-07 22:35:00,
2013-12-07 16:37:00,11.8,1.3,30.58,West,276,0.0,0.0,62,0.00,,---,0.00,VWS V14.00,2013-12-07 22:37:00,
2013-12-07 16:40:00,11.7,1.2,30.58,West,276,0.0,0.0,62,0.00,,---,0.00,VWS V14.00,2013-12-07 22:40:00,
2013-12-07 16:41:00,11.6,1.1,30.58,West,276,0.0,0.0,62,0.00,,---,0.00,VWS V14.00,2013-12-07 22:41:00,
2013-12-07 16:45:00,11.5,1.4,30.58,West,276,0.0,0.0,63,0.00,,---,0.00,VWS V14.00,2013-12-07 22:45:00,
2013-12-07 16:46:00,11.4,1.3,30.58,West,276,0.0,1.0,63,0.00,,---,0.00,VWS V14.00,2013-12-07 22:46:00,
2013-12-07 16:50:00,11.3,1.5,30.58,West,276,0.0,1.0,64,0.00,,---,0.00,VWS V14.00,2013-12-07 22:50:00,
2013-12-07 16:51:00,11.2,1.4,30.58,West,276,0.0,0.0,64,0.00,,---,0.00,VWS V14.00,2013-12-07 22:51:00,
2013-12-07 16:55:00,11.1,1.3,30.58,West,276,0.0,0.0,64,0.00,,---,0.00,VWS V14.00,2013-12-07 22:55:00,
2013-12-07 16:56:00,11.0,1.2,30.58,West,276,0.0,0.0,64,0.00,,---,0.00,VWS V14.00,2013-12-07 22:56:00,
2013-12-07 17:00:00,10.9,1.5,30.58,West,276,0.0,0.0,65,0.00,,---,0.00,VWS V14.00,2013-12-07 23:00:00,
2013-12-07 17:01:00,10.8,1.4,30.58,West,276,0.0,0.0,65,0.00,,---,0.00,VWS V14.00,2013-12-07 23:01:00,
2013-12-07 17:05:00,10.7,1.3,30.58,West,276,0.0,0.0,65,0.00,,---,0.00,VWS V14.00,2013-12-07 23:05:00,
2013-12-07 17:07:00,10.5,1.1,30.58,West,276,0.0,0.0,65,0.00,,---,0.00,VWS V14.00,2013-12-07 23:07:00,
2013-12-07 17:10:00,10.4,1.3,30.58,West,276,0.0,0.0,66,0.00,,---,0.00,VWS V14.00,2013-12-07 23:10:00,
2013-12-07 17:12:00,10.3,1.2,30.58,West,276,0.0,0.0,66,0.00,,---,0.00,VWS V14.00,2013-12-07 23:12:00,
2013-12-07 17:15:00,10.2,1.1,30.58,West,276,0.0,0.0,66,0.00,,---,0.00,VWS V14.00,2013-12-07 23:15:00,
2013-12-07 17:17:00,10.1,1.3,30.58,West,276,0.0,0.0,67,0.00,,---,0.00,VWS V14.00,2013-12-07 23:17:00,
2013-12-07 17:20:00,10.0,1.2,30.58,West,276,0.0,0.0,67,0.00,,---,0.00,VWS V14.00,2013-12-07 23:20:00,
2013-12-07 17:22:00,9.9,1.5,30.58,West,276,0.0,0.0,68,0.00,,---,0.00,VWS V14.00,2013-12-07 23:22:00,
2013-12-07 17:25:00,9.9,1.5,30.58,West,276,0.0,0.0,68,0.00,,---,0.00,VWS V14.00,2013-12-07 23:25:00,
2013-12-07 17:27:00,9.8,1.4,30.58,West,276,0.0,0.0,68,0.00,,---,0.00,VWS V14.00,2013-12-07 23:27:00,
2013-12-07 17:30:00,9.8,1.4,30.58,West,276,0.0,0.0,68,0.00,,---,0.00,VWS V14.00,2013-12-07 23:30:00,
2013-12-07 17:32:00,9.8,1.4,30.58,West,276,0.0,0.0,68,0.00,,---,0.00,VWS V14.00,2013-12-07 23:32:00,
2013-12-07 17:35:00,9.8,1.4,30.58,West,276,0.0,0.0,68,0.00,,---,0.00,VWS V14.00,2013-12-07 23:35:00,
2013-12-07 17:37:00,9.8,1.4,30.58,West,276,0.0,1.0,68,0.00,,---,0.00,VWS V14.00,2013-12-07 23:37:00,
2013-12-07 17:40:00,9.7,1.3,30.58,West,276,0.0,1.0,68,0.00,,---,0.00,VWS V14.00,2013-12-07 23:40:00,
2013-12-07 17:42:00,9.7,1.3,30.57,West,276,0.0,0.0,68,0.00,,---,0.00,VWS V14.00,2013-12-07 23:42:00,
2013-12-07 17:45:00,9.6,1.5,30.57,West,276,0.0,0.0,69,0.00,,---,0.00,VWS V14.00,2013-12-07 23:45:00,
2013-12-07 17:47:00,9.5,1.4,30.57,West,276,0.0,0.0,69,0.00,,---,0.00,VWS V14.00,2013-12-07 23:47:00,
2013-12-07 17:50:00,9.3,1.5,30.57,West,276,0.0,0.0,70,0.00,,---,0.00,VWS V14.00,2013-12-07 23:50:00,
2013-12-07 17:52:00,9.1,1.3,30.57,West,276,0.0,0.0,70,0.00,,---,0.00,VWS V14.00,2013-12-07 23:52:00,
2013-12-07 17:55:00,8.9,1.4,30.57,West,276,0.0,0.0,71,0.00,,---,0.00,VWS V14.00,2013-12-07 23:55:00,
2013-12-07 17:57:00,8.7,1.2,30.57,West,276,0.0,0.0,71,0.00,,---,0.00,VWS V14.00,2013-12-07 23:57:00,
2013-12-07 18:00:00,8.6,1.4,30.57,West,276,0.0,0.0,72,0.00,,---,0.00,VWS V14.00,2013-12-08 00:00:00,
2013-12-07 18:02:00,8.5,1.3,30.57,West,276,0.0,0.0,72,0.00,,---,0.00,VWS V14.00,2013-12-08 00:02:00,
2013-12-07 18:05:00,8.5,1.3,30.57,West,276,0.0,0.0,72,0.00,,---,0.00,VWS V14.00,2013-12-08 00:05:00,
2013-12-07 18:07:00,8.5,1.6,30.57,West,276,0.0,0.0,73,0.00,,---,0.00,VWS V14.00,2013-12-08 00:07:00,
2013-12-07 18:10:00,8.5,1.6,30.57,West,276,0.0,0.0,73,0.00,,---,0.00,VWS V14.00,2013-12-08 00:10:00,
2013-12-07 18:11:00,8.5,1.6,30.57,West,276,0.0,0.0,73,0.00,,---,0.00,VWS V14.00,2013-12-08 00:11:00,
2013-12-07 18:15:00,8.5,1.6,30.57,West,276,0.0,0.0,73,0.00,,---,0.00,VWS V14.00,2013-12-08 00:15:00,
2013-12-07 18:16:00,8.5,1.6,30.57,West,276,0.0,0.0,73,0.00,,---,0.00,VWS V14.00,2013-12-08 00:16:00,
2013-12-07 18:20:00,8.4,1.5,30.56,West,276,0.0,0.0,73,0.00,,---,0.00,VWS V14.00,2013-12-08 00:20:00,
2013-12-07 18:21:00,8.3,1.5,30.57,West,276,0.0,0.0,73,0.00,,---,0.00,VWS V14.00,2013-12-08 00:21:00,
2013-12-07 18:25:00,8.1,1.2,30.57,West,276,0.0,0.0,73,0.00,,---,0.00,VWS V14.00,2013-12-08 00:25:00,
2013-12-07 18:26:00,8.0,1.5,30.57,West,276,0.0,0.0,74,0.00,,---,0.00,VWS V14.00,2013-12-08 00:26:00,
2013-12-07 18:30:00,7.9,1.4,30.57,West,276,0.0,0.0,74,0.00,,---,0.00,VWS V14.00,2013-12-08 00:30:00,
2013-12-07 18:31:00,7.8,1.2,30.57,West,276,0.0,0.0,74,0.00,,---,0.00,VWS V14.00,2013-12-08 00:31:00,
2013-12-07 18:35:00,7.8,1.5,30.57,West,276,0.0,0.0,75,0.00,,---,0.00,VWS V14.00,2013-12-08 00:35:00,
2013-12-07 18:36:00,7.7,1.4,30.56,West,276,0.0,0.0,75,0.00,,---,0.00,VWS V14.00,2013-12-08 00:36:00,
2013-12-07 18:40:00,7.7,1.4,30.56,West,276,0.0,0.0,75,0.00,,---,0.00,VWS V14.00,2013-12-08 00:40:00,
2013-12-07 18:41:00,7.7,1.4,30.56,West,276,0.0,0.0,75,0.00,,---,0.00,VWS V14.00,2013-12-08 00:41:00,
2013-12-07 18:45:00,7.7,1.2,30.56,West,276,0.0,0.0,74,0.00,,---,0.00,VWS V14.00,2013-12-08 00:45:00,
2013-12-07 18:46:00,7.7,1.2,30.56,West,276,0.0,0.0,74,0.00,,---,0.00,VWS V14.00,2013-12-08 00:46:00,
2013-12-07 18:50:00,7.6,1.1,30.56,West,276,0.0,0.0,74,0.00,,---,0.00,VWS V14.00,2013-12-08 00:50:00,
2013-12-07 18:52:00,7.5,1.2,30.56,West,276,0.0,0.0,75,0.00,,---,0.00,VWS V14.00,2013-12-08 00:52:00,
2013-12-07 18:55:00,7.4,1.1,30.56,West,276,0.0,0.0,75,0.00,,---,0.00,VWS V14.00,2013-12-08 00:55:00,
2013-12-07 18:57:00,7.4,1.1,30.56,West,276,0.0,0.0,75,0.00,,---,0.00,VWS V14.00,2013-12-08 00:57:00,
2013-12-07 19:00:00,7.4,1.1,30.56,West,276,0.0,0.0,75,0.00,,---,0.00,VWS V14.00,2013-12-08 01:00:00,
2013-12-07 19:02:00,7.4,1.4,30.55,West,276,0.0,0.0,76,0.00,,---,0.00,VWS V14.00,2013-12-08 01:02:00,
2013-12-07 19:05:00,7.3,1.3,30.56,West,276,0.0,1.0,76,0.00,,---,0.00,VWS V14.00,2013-12-08 01:05:00,
2013-12-07 19:07:00,7.2,1.2,30.56,West,276,0.0,1.0,76,0.00,,---,0.00,VWS V14.00,2013-12-08 01:07:00,
2013-12-07 19:10:00,7.1,1.1,30.56,West,276,0.0,1.0,76,0.00,,---,0.00,VWS V14.00,2013-12-08 01:10:00,
2013-12-07 19:12:00,7.1,1.1,30.56,West,276,0.0,0.0,76,0.00,,---,0.00,VWS V14.00,2013-12-08 01:12:00,
2013-12-07 19:15:00,7.0,1.0,30.56,West,276,0.0,0.0,76,0.00,,---,0.00,VWS V14.00,2013-12-08 01:15:00,
2013-12-07 19:17:00,6.9,0.9,30.56,West,276,0.0,0.0,76,0.00,,---,0.00,VWS V14.00,2013-12-08 01:17:00,
2013-12-07 19:20:00,6.9,1.2,30.56,West,276,0.0,0.0,77,0.00,,---,0.00,VWS V14.00,2013-12-08 01:20:00,
2013-12-07 19:22:00,6.8,1.1,30.55,West,276,0.0,0.0,77,0.00,,---,0.00,VWS V14.00,2013-12-08 01:22:00,
2013-12-07 19:25:00,6.7,1.0,30.55,West,276,0.0,0.0,77,0.00,,---,0.00,VWS V14.00,2013-12-08 01:25:00,
2013-12-07 19:27:00,6.7,1.0,30.55,West,276,0.0,0.0,77,0.00,,---,0.00,VWS V14.00,2013-12-08 01:27:00,
2013-12-07 19:30:00,6.6,1.2,30.55,West,276,0.0,0.0,78,0.00,,---,0.00,VWS V14.00,2013-12-08 01:30:00,
2013-12-07 19:32:00,6.7,1.3,30.55,West,276,0.0,0.0,78,0.00,,---,0.00,VWS V14.00,2013-12-08 01:32:00,
2013-12-07 19:35:00,6.7,1.6,30.56,West,276,0.0,0.0,79,0.00,,---,0.00,VWS V14.00,2013-12-08 01:35:00,
2013-12-07 19:37:00,6.7,1.6,30.56,West,276,0.0,0.0,79,0.00,,---,0.00,VWS V14.00,2013-12-08 01:37:00,
2013-12-07 19:40:00,6.6,1.5,30.56,West,276,0.0,0.0,79,0.00,,---,0.00,VWS V14.00,2013-12-08 01:40:00,
2013-12-07 19:42:00,6.5,1.4,30.56,West,276,0.0,0.0,79,0.00,,---,0.00,VWS V14.00,2013-12-08 01:42:00,
2013-12-07 19:45:00,6.4,1.3,30.56,West,276,0.0,0.0,79,0.00,,---,0.00,VWS V14.00,2013-12-08 01:45:00,
2013-12-07 19:47:00,6.3,1.2,30.56,West,276,0.0,0.0,79,0.00,,---,0.00,VWS V14.00,2013-12-08 01:47:00,
2013-12-07 19:50:00,6.3,1.5,30.56,West,276,0.0,0.0,80,0.00,,---,0.00,VWS V14.00,2013-12-08 01:50:00,
2013-12-07 19:52:00,6.4,1.6,30.56,West,276,0.0,1.0,80,0.00,,---,0.00,VWS V14.00,2013-12-08 01:52:00,
2013-12-07 19:55:00,6.4,1.6,30.56,West,276,1.0,1.0,80,0.00,,---,0.00,VWS V14.00,2013-12-08 01:55:00,
2013-12-07 19:57:00,6.4,1.6,30.56,West,276,0.0,1.0,80,0.00,,---,0.00,VWS V14.00,2013-12-08 01:57:00,
2013-12-07 20:00:00,6.4,1.6,30.56,West,276,0.0,1.0,80,0.00,,---,0.00,VWS V14.00,2013-12-08 02:00:00,
2013-12-07 20:02:00,6.5,1.7,30.56,West,276,0.0,0.0,80,0.00,,---,0.00,VWS V14.00,2013-12-08 02:02:00,
2013-12-07 20:05:00,6.4,1.6,30.55,West,276,0.0,0.0,80,0.00,,---,0.00,VWS V14.00,2013-12-08 02:05:00,
2013-12-07 20:07:00,6.4,1.6,30.56,West,276,0.0,1.0,80,0.00,,---,0.00,VWS V14.00,2013-12-08 02:07:00,
2013-12-07 20:10:00,6.4,1.8,30.55,West,276,0.0,1.0,81,0.00,,---,0.00,VWS V14.00,2013-12-08 02:10:00,
2013-12-07 20:12:00,6.4,1.8,30.55,West,276,0.0,0.0,81,0.00,,---,0.00,VWS V14.00,2013-12-08 02:12:00,
2013-12-07 20:15:00,6.4,1.8,30.55,West,276,0.0,0.0,81,0.00,,---,0.00,VWS V14.00,2013-12-08 02:15:00,
2013-12-07 20:17:00,6.4,1.8,30.55,West,276,0.0,0.0,81,0.00,,---,0.00,VWS V14.00,2013-12-08 02:17:00,
2013-12-07 20:20:00,6.3,1.5,30.55,West,276,0.0,0.0,80,0.00,,---,0.00,VWS V14.00,2013-12-08 02:20:00,
2013-12-07 20:22:00,6.2,1.4,30.55,West,276,0.0,0.0,80,0.00,,---,0.00,VWS V14.00,2013-12-08 02:22:00,
2013-12-07 20:25:00,6.1,1.3,30.55,West,276,0.0,0.0,80,0.00,,---,0.00,VWS V14.00,2013-12-08 02:25:00,
2013-12-07 20:27:00,6.0,1.2,30.55,West,276,0.0,0.0,80,0.00,,---,0.00,VWS V14.00,2013-12-08 02:27:00,
2013-12-07 20:30:00,6.0,1.4,30.55,West,276,0.0,0.0,81,0.00,,---,0.00,VWS V14.00,2013-12-08 02:30:00,
2013-12-07 20:32:00,5.9,1.3,30.55,West,276,0.0,0.0,81,0.00,,---,0.00,VWS V14.00,2013-12-08 02:32:00,
2013-12-07 20:35:00,5.9,1.3,30.55,West,276,0.0,0.0,81,0.00,,---,0.00,VWS V14.00,2013-12-08 02:35:00,
2013-12-07 20:37:00,5.8,1.2,30.54,West,276,0.0,0.0,81,0.00,,---,0.00,VWS V14.00,2013-12-08 02:37:00,
2013-12-07 20:40:00,5.8,1.2,30.55,West,276,0.0,0.0,81,0.00,,---,0.00,VWS V14.00,2013-12-08 02:40:00,
2013-12-07 20:42:00,5.8,1.2,30.55,West,276,0.0,0.0,81,0.00,,---,0.00,VWS V14.00,2013-12-08 02:42:00,
2013-12-07 20:45:00,5.8,1.5,30.55,West,276,0.0,0.0,82,0.00,,---,0.00,VWS V14.00,2013-12-08 02:45:00,
2013-12-07 20:47:00,5.8,1.5,30.55,West,276,0.0,0.0,82,0.00,,---,0.00,VWS V14.00,2013-12-08 02:47:00,
2013-12-07 20:50:00,5.8,1.5,30.55,West,276,0.0,0.0,82,0.00,,---,0.00,VWS V14.00,2013-12-08 02:50:00,
2013-12-07 20:52:00,5.8,1.5,30.55,West,276,0.0,0.0,82,0.00,,---,0.00,VWS V14.00,2013-12-08 02:52:00,
2013-12-07 20:55:00,5.8,1.5,30.55,West,276,0.0,0.0,82,0.00,,---,0.00,VWS V14.00,2013-12-08 02:55:00,
2013-12-07 20:57:00,5.8,1.8,30.55,West,276,0.0,0.0,83,0.00,,---,0.00,VWS V14.00,2013-12-08 02:57:00,
2013-12-07 21:00:00,5.8,1.8,30.55,West,276,0.0,0.0,83,0.00,,---,0.00,VWS V14.00,2013-12-08 03:00:00,
2013-12-07 21:02:00,5.7,3.9,30.55,West,276,0.0,0.0,92,0.00,,---,0.00,VWS V14.00,2013-12-08 03:02:00,
2013-12-07 21:05:00,5.7,1.7,30.55,West,276,0.0,0.0,83,0.00,,---,0.00,VWS V14.00,2013-12-08 03:05:00,
2013-12-07 21:07:00,5.6,1.6,30.55,West,276,0.0,0.0,83,0.00,,---,0.00,VWS V14.00,2013-12-08 03:07:00,
2013-12-07 21:10:00,5.6,1.6,30.55,West,276,0.0,0.0,83,0.00,,---,0.00,VWS V14.00,2013-12-08 03:10:00,
2013-12-07 21:12:00,5.6,1.6,30.55,West,276,0.0,0.0,83,0.00,,---,0.00,VWS V14.00,2013-12-08 03:12:00,
2013-12-07 21:15:00,5.5,1.5,30.55,West,276,0.0,0.0,83,0.00,,---,0.00,VWS V14.00,2013-12-08 03:15:00,
2013-12-07 21:17:00,5.5,1.5,30.55,West,276,0.0,0.0,83,0.00,,---,0.00,VWS V14.00,2013-12-08 03:17:00,
2013-12-07 21:20:00,5.4,1.4,30.55,West,276,0.0,0.0,83,0.00,,---,0.00,VWS V14.00,2013-12-08 03:20:00,
2013-12-07 21:22:00,5.4,1.6,30.55,West,276,0.0,0.0,84,0.00,,---,0.00,VWS V14.00,2013-12-08 03:22:00,
2013-12-07 21:25:00,5.5,1.7,30.55,West,276,0.0,0.0,84,0.00,,---,0.00,VWS V14.00,2013-12-08 03:25:00,
2013-12-07 21:27:00,5.5,1.7,30.55,West,276,0.0,0.0,84,0.00,,---,0.00,VWS V14.00,2013-12-08 03:27:00,
2013-12-07 21:30:00,5.5,1.7,30.54,West,276,0.0,0.0,84,0.00,,---,0.00,VWS V14.00,2013-12-08 03:30:00,
2013-12-07 21:32:00,5.5,1.7,30.55,West,276,0.0,0.0,84,0.00,,---,0.00,VWS V14.00,2013-12-08 03:32:00,
2013-12-07 21:35:00,5.5,1.7,30.55,West,276,0.0,0.0,84,0.00,,---,0.00,VWS V14.00,2013-12-08 03:35:00,
2013-12-07 21:37:00,5.5,1.7,30.55,West,276,0.0,0.0,84,0.00,,---,0.00,VWS V14.00,2013-12-08 03:37:00,
2013-12-07 21:40:00,5.5,1.7,30.55,West,276,0.0,0.0,84,0.00,,---,0.00,VWS V14.00,2013-12-08 03:40:00,
2013-12-07 21:42:00,5.5,1.7,30.55,West,276,0.0,0.0,84,0.00,,---,0.00,VWS V14.00,2013-12-08 03:42:00,
2013-12-07 21:45:00,5.6,1.8,30.55,West,276,0.0,0.0,84,0.00,,---,0.00,VWS V14.00,2013-12-08 03:45:00,
2013-12-07 21:47:00,5.6,2.1,30.55,West,276,0.0,1.0,85,0.00,,---,0.00,VWS V14.00,2013-12-08 03:47:00,
2013-12-07 21:50:00,5.6,2.1,30.55,West,276,0.0,1.0,85,0.00,,---,0.00,VWS V14.00,2013-12-08 03:50:00,
2013-12-07 21:51:00,5.6,2.1,30.55,West,276,0.0,0.0,85,0.00,,---,0.00,VWS V14.00,2013-12-08 03:51:00,
2013-12-07 21:55:00,5.7,2.2,30.54,West,276,0.0,0.0,85,0.00,,---,0.00,VWS V14.00,2013-12-08 03:55:00,
2013-12-07 21:56:00,5.7,2.2,30.55,West,276,0.0,0.0,85,0.00,,---,0.00,VWS V14.00,2013-12-08 03:56:00,
2013-12-07 22:00:00,5.8,2.3,30.55,West,276,0.0,0.0,85,0.00,,---,0.00,VWS V14.00,2013-12-08 04:00:00,
2013-12-07 22:01:00,5.8,2.3,30.54,West,276,0.0,0.0,85,0.00,,---,0.00,VWS V14.00,2013-12-08 04:01:00,
2013-12-07 22:05:00,5.8,2.3,30.54,West,276,0.0,0.0,85,0.00,,---,0.00,VWS V14.00,2013-12-08 04:05:00,
2013-12-07 22:06:00,5.9,2.4,30.54,West,276,0.0,0.0,85,0.00,,---,0.00,VWS V14.00,2013-12-08 04:06:00,
2013-12-07 22:10:00,5.9,2.4,30.54,West,276,0.0,0.0,85,0.00,,---,0.00,VWS V14.00,2013-12-08 04:10:00,
2013-12-07 22:11:00,6.0,2.5,30.54,West,276,0.0,0.0,85,0.00,,---,0.00,VWS V14.00,2013-12-08 04:11:00,
2013-12-07 22:15:00,6.0,2.5,30.54,West,276,0.0,0.0,85,0.00,,---,0.00,VWS V14.00,2013-12-08 04:15:00,
2013-12-07 22:16:00,6.1,2.6,30.54,West,276,0.0,0.0,85,0.00,,---,0.00,VWS V14.00,2013-12-08 04:16:00,
2013-12-07 22:20:00,6.2,2.7,30.54,West,276,0.0,0.0,85,0.00,,---,0.00,VWS V14.00,2013-12-08 04:20:00,
2013-12-07 22:21:00,6.3,2.8,30.54,West,276,0.0,0.0,85,0.00,,---,0.00,VWS V14.00,2013-12-08 04:21:00,
2013-12-07 22:25:00,6.3,2.8,30.54,West,276,0.0,0.0,85,0.00,,---,0.00,VWS V14.00,2013-12-08 04:25:00,
2013-12-07 22:26:00,6.3,2.8,30.54,West,276,0.0,0.0,85,0.00,,---,0.00,VWS V14.00,2013-12-08 04:26:00,
2013-12-07 22:30:00,6.3,2.8,30.54,West,276,0.0,0.0,85,0.00,,---,0.00,VWS V14.00,2013-12-08 04:30:00,
2013-12-07 22:31:00,6.3,2.8,30.54,West,276,0.0,0.0,85,0.00,,---,0.00,VWS V14.00,2013-12-08 04:31:00,
2013-12-07 22:35:00,6.3,2.8,30.54,West,276,0.0,0.0,85,0.00,,---,0.00,VWS V14.00,2013-12-08 04:35:00,
2013-12-07 22:36:00,6.3,2.8,30.55,West,276,0.0,0.0,85,0.00,,---,0.00,VWS V14.00,2013-12-08 04:36:00,
2013-12-07 22:40:00,6.3,2.8,30.55,West,276,0.0,0.0,85,0.00,,---,0.00,VWS V14.00,2013-12-08 04:40:00,
2013-12-07 22:41:00,6.3,2.8,30.55,West,276,0.0,0.0,85,0.00,,---,0.00,VWS V14.00,2013-12-08 04:41:00,
2013-12-07 22:45:00,6.3,2.8,30.55,West,276,0.0,0.0,85,0.00,,---,0.00,VWS V14.00,2013-12-08 04:45:00,
2013-12-07 22:46:00,6.3,2.8,30.55,West,276,0.0,0.0,85,0.00,,---,0.00,VWS V14.00,2013-12-08 04:46:00,
2013-12-07 22:50:00,6.3,2.8,30.55,West,276,0.0,0.0,85,0.00,,---,0.00,VWS V14.00,2013-12-08 04:50:00,
2013-12-07 22:51:00,6.3,2.8,30.55,West,276,0.0,0.0,85,0.00,,---,0.00,VWS V14.00,2013-12-08 04:51:00,
2013-12-07 22:55:00,6.3,2.8,30.55,West,276,0.0,0.0,85,0.00,,---,0.00,VWS V14.00,2013-12-08 04:55:00,
2013-12-07 22:56:00,6.4,3.1,30.56,West,276,0.0,0.0,86,0.00,,---,0.00,VWS V14.00,2013-12-08 04:56:00,
2013-12-07 23:00:00,6.4,2.9,30.56,West,276,0.0,0.0,85,0.00,,---,0.00,VWS V14.00,2013-12-08 05:00:00,
2013-12-07 23:01:00,6.4,2.9,30.56,West,276,0.0,0.0,85,0.00,,---,0.00,VWS V14.00,2013-12-08 05:01:00,
2013-12-07 23:02:00,6.4,3.1,30.56,West,276,0.0,0.0,86,0.00,,---,0.00,VWS V14.00,2013-12-08 05:02:00,
2013-12-07 23:05:00,6.4,3.1,30.56,West,276,0.0,0.0,86,0.00,,---,0.00,VWS V14.00,2013-12-08 05:05:00,
2013-12-07 23:07:00,6.3,3.0,30.56,West,276,0.0,0.0,86,0.00,,---,0.00,VWS V14.00,2013-12-08 05:07:00,
2013-12-07 23:10:00,6.3,3.0,30.56,West,276,0.0,0.0,86,0.00,,---,0.00,VWS V14.00,2013-12-08 05:10:00,
2013-12-07 23:12:00,6.3,2.8,30.56,West,276,0.0,0.0,85,0.00,,---,0.00,VWS V14.00,2013-12-08 05:12:00,
2013-12-07 23:15:00,6.2,2.7,30.56,West,276,0.0,0.0,85,0.00,,---,0.00,VWS V14.00,2013-12-08 05:15:00,
2013-12-07 23:17:00,6.2,2.7,30.56,West,276,0.0,0.0,85,0.00,,---,0.00,VWS V14.00,2013-12-08 05:17:00,
2013-12-07 23:20:00,6.3,3.0,30.56,West,276,0.0,0.0,86,0.00,,---,0.00,VWS V14.00,2013-12-08 05:20:00,
2013-12-07 23:22:00,6.3,3.0,30.56,West,276,0.0,0.0,86,0.00,,---,0.00,VWS V14.00,2013-12-08 05:22:00,
2013-12-07 23:25:00,6.2,2.9,30.56,West,276,0.0,0.0,86,0.00,,---,0.00,VWS V14.00,2013-12-08 05:25:00,
2013-12-07 23:27:00,6.2,2.9,30.55,West,276,0.0,0.0,86,0.00,,---,0.00,VWS V14.00,2013-12-08 05:27:00,
2013-12-07 23:30:00,6.2,2.9,30.55,West,276,0.0,0.0,86,0.00,,---,0.00,VWS V14.00,2013-12-08 05:30:00,
2013-12-07 23:32:00,6.3,3.0,30.55,West,276,0.0,0.0,86,0.00,,---,0.00,VWS V14.00,2013-12-08 05:32:00,
2013-12-07 23:35:00,6.3,3.0,30.55,West,276,0.0,0.0,86,0.00,,---,0.00,VWS V14.00,2013-12-08 05:35:00,
2013-12-07 23:37:00,6.3,3.0,30.55,West,276,0.0,0.0,86,0.00,,---,0.00,VWS V14.00,2013-12-08 05:37:00,
2013-12-07 23:40:00,6.4,3.1,30.55,West,276,0.0,0.0,86,0.00,,---,0.00,VWS V14.00,2013-12-08 05:40:00,
2013-12-07 23:42:00,6.6,3.3,30.55,West,276,0.0,0.0,86,0.00,,---,0.00,VWS V14.00,2013-12-08 05:42:00,
2013-12-07 23:45:00,6.8,3.5,30.55,West,276,0.0,0.0,86,0.00,,---,0.00,VWS V14.00,2013-12-08 05:45:00,
2013-12-07 23:47:00,7.0,3.7,30.55,West,276,0.0,0.0,86,0.00,,---,0.00,VWS V14.00,2013-12-08 05:47:00,
2013-12-07 23:50:00,7.1,3.8,30.55,West,276,0.0,0.0,86,0.00,,---,0.00,VWS V14.00,2013-12-08 05:50:00,
2013-12-07 23:52:00,7.3,4.0,30.55,West,276,0.0,0.0,86,0.00,,---,0.00,VWS V14.00,2013-12-08 05:52:00,
2013-12-07 23:55:00,7.4,4.1,30.55,West,276,0.0,0.0,86,0.00,,---,0.00,VWS V14.00,2013-12-08 05:55:00,
2013-12-07 23:57:00,7.4,4.1,30.55,West,276,0.0,0.0,86,0.00,,---,0.00,VWS V14.00,2013-12-08 05:57:00,